DW9417 Weather Reports


Display with metric or nautical units.
time (UTC)temp
F
wind
direction
speed
MPH
gust
MPH
rain 1hr
in
rain 24hr
in
rain mn
in
humidity
%
barometer
mb
20260509223004 50 40 0.0 4.0 0.00 0.00 0.00 72 1027.4
20260509221502 50 12 0.0 2.0 0.00 0.00 0.00 73 1027.3
20260509220005 49 5 0.0 3.0 0.00 0.00 0.00 73 1027.3
20260509214631 50 351 0.0 4.0 0.00 0.00 0.00 73 1027.1
20260509213100 49 351 0.0 2.0 0.00 0.00 0.00 73 1026.9
20260509211556 49 342 0.0 4.0 0.00 0.00 0.00 73 1026.9
20260509210106 49 342 0.0 2.0 0.00 0.00 0.00 72 1026.9
20260509204555 50 341 0.0 3.0 0.00 0.00 0.00 71 1026.8
20260509203102 50 341 1.0 4.0 0.00 0.00 0.00 71 1026.7
20260509201553 50 350 1.0 4.0 0.00 0.00 0.00 70 1026.6
20260509200055 50 343 1.0 4.0 0.00 0.00 0.00 70 1026.5
20260509194552 50 342 0.0 4.0 0.00 0.00 0.00 70 1026.5
20260509193056 50 96 1.0 2.0 0.00 0.00 0.00 70 1026.5
20260509191600 51 96 0.0 2.0 0.00 0.00 0.00 70 1026.5
20260509190053 50 96 0.0 0.0 0.00 0.00 0.00 70 1026.5
20260509184558 50 96 0.0 0.0 0.00 0.00 0.00 69 1026.7
20260509183052 50 95 0.0 2.0 0.00 0.00 0.00 70 1026.6
20260509181545 50 94 0.0 1.0 0.00 0.00 0.00 69 1026.6
20260509180044 50 94 0.0 1.0 0.00 0.00 0.00 70 1026.4
20260509174559 50 92 0.0 1.0 0.00 0.00 0.00 70 1026.4
20260509173049 49 87 0.0 1.0 0.00 0.00 0.00 70 1026.4
20260509171538 48 88 0.0 1.0 0.00 0.00 0.00 71 1026.4
20260509170034 46 90 0.0 0.0 0.00 0.00 0.00 72 1026.5
20260509164530 45 88 0.0 0.0 0.00 0.00 0.00 73 1026.6
20260509163037 45 87 0.0 0.0 0.00 0.00 0.00 71 1026.6
20260509161526 45 88 0.0 0.0 0.00 0.00 0.00 70 1026.5
20260509160023 45 89 0.0 0.0 0.00 0.00 0.00 72 1026.4
20260509154525 45 88 0.0 0.0 0.00 0.00 0.00 70 1026.3
20260509153031 45 89 0.0 0.0 0.00 0.00 0.00 70 1026.3
20260509151519 46 88 0.0 0.0 0.00 0.00 0.00 69 1026.3
20260509150019 46 89 0.0 0.0 0.00 0.00 0.00 68 1026.4
20260509144524 47 83 0.0 0.0 0.00 0.00 0.00 67 1026.6
20260509143017 47 88 0.0 0.0 0.00 0.00 0.00 67 1026.4
20260509141516 47 75 0.0 0.0 0.00 0.00 0.00 66 1026.5
20260509140015 47 88 0.0 0.0 0.00 0.00 0.00 68 1026.4
20260509134515 47 88 0.0 0.0 0.00 0.00 0.00 67 1026.4
20260509133014 47 86 0.0 0.0 0.00 0.00 0.00 67 1026.5
20260509131514 47 84 0.0 0.0 0.00 0.00 0.00 66 1026.5
20260509130024 48 87 0.0 0.0 0.00 0.00 0.00 65 1026.5
20260509124508 48 88 0.0 0.0 0.00 0.00 0.00 65 1026.4
20260509123008 49 86 0.0 0.0 0.00 0.00 0.00 64 1026.4
20260509121510 49 78 0.0 0.0 0.00 0.00 0.00 64 1026.5
20260509120006 49 88 0.0 0.0 0.00 0.00 0.00 61 1026.4
20260509114506 50 88 0.0 0.0 0.00 0.00 0.00 59 1026.6
20260509113005 51 72 0.0 0.0 0.00 0.00 0.00 56 1026.6
20260509111505 53 88 0.0 0.0 0.00 0.00 0.00 54 1026.5
20260509110005 54 88 0.0 0.0 0.00 0.00 0.00 52 1026.5
20260509104509 55 88 0.0 0.0 0.00 0.00 0.00 50 1026.4
20260509103003 56 96 0.0 0.0 0.00 0.00 0.00 48 1026.2
20260509101509 59 96 0.0 2.0 0.00 0.00 0.00 46 1026.1
20260509100002 61 96 1.0 3.0 0.00 0.00 0.00 43 1025.9
20260509094501 63 71 1.0 6.0 0.00 0.00 0.00 41 1025.8
20260509093002 65 77 3.0 5.0 0.00 0.00 0.00 37 1025.6
20260509091608 67 61 3.0 6.0 0.00 0.00 0.00 36 1025.5
20260509090107 69 82 2.0 7.0 0.00 0.00 0.00 34 1025.5
20260509084603 70 49 2.0 9.0 0.00 0.00 0.00 33 1025.3
20260509083103 70 86 3.0 11.0 0.00 0.00 0.00 33 1025.1
20260509081557 71 40 3.0 12.0 0.00 0.00 0.00 33 1024.9
20260509080059 71 82 3.0 9.0 0.00 0.00 0.00 32 1024.9
20260509074558 71 53 2.0 10.0 0.00 0.00 0.00 32 1024.8
20260509073056 71 98 6.0 10.0 0.00 0.00 0.00 31 1024.9
20260509071554 71 92 4.0 10.0 0.00 0.00 0.00 32 1024.9
20260509070054 71 41 3.0 8.0 0.00 0.00 0.00 31 1025.0
20260509064553 71 44 3.0 11.0 0.00 0.00 0.00 32 1025.0
20260509063051 71 45 3.0 10.0 0.00 0.00 0.00 33 1025.1
20260509061549 71 159 4.0 10.0 0.00 0.00 0.00 32 1025.0
20260509060105 71 44 2.0 9.0 0.00 0.00 0.00 32 1025.2
20260509054549 71 47 3.0 9.0 0.00 0.00 0.00 32 1025.5
20260509053109 70 71 4.0 9.0 0.00 0.00 0.00 33 1025.6
20260509051550 70 71 2.0 10.0 0.00 0.00 0.00 34 1025.8
20260509050040 70 28 7.0 13.0 0.00 0.00 0.00 34 1026.2
20260509044541 70 49 3.0 10.0 0.00 0.00 0.00 35 1026.4
20260509043036 69 355 3.0 11.0 0.00 0.00 0.00 36 1026.7
20260509041531 69 18 5.0 10.0 0.00 0.00 0.00 38 1027.1
20260509040031 68 324 2.0 9.0 0.00 0.00 0.00 40 1027.5
20260509034524 67 13 4.0 9.0 0.00 0.00 0.00 42 1027.7
20260509033123 67 59 4.0 13.0 0.00 0.00 0.00 42 1028.0
20260509031516 66 348 3.0 19.0 0.00 0.00 0.00 43 1028.1
20260509030026 65 21 2.0 11.0 0.00 0.00 0.00 47 1028.4
20260509024514 64 46 3.0 11.0 0.00 0.00 0.00 47 1028.6
20260509023010 63 22 4.0 11.0 0.00 0.00 0.00 49 1028.8
20260509021505 63 5 4.0 13.0 0.00 0.00 0.00 51 1028.9
20260509020109 62 107 7.0 13.0 0.00 0.00 0.00 52 1028.9
20260509014557 60 53 4.0 13.0 0.00 0.00 0.00 55 1029.1
20260509013058 59 36 7.0 14.0 0.00 0.00 0.00 56 1029.1
20260509011555 58 21 6.0 15.0 0.00 0.00 0.00 58 1029.2
20260509010047 57 108 9.0 14.0 0.00 0.00 0.00 59 1029.4
20260509004555 56 44 7.0 13.0 0.00 0.00 0.00 60 1029.6
20260509003050 55 11 7.0 13.0 0.00 0.00 0.00 63 1029.6
20260509001535 53 46 4.0 11.0 0.00 0.00 0.00 66 1029.5
20260509000034 52 40 5.0 12.0 0.00 0.00 0.00 67 1029.5
20260508234532 51 38 5.0 10.0 0.00 0.00 0.00 68 1029.3
20260508233031 50 62 4.0 9.0 0.00 0.00 0.00 69 1029.2
20260508231529 49 78 4.0 6.0 0.00 0.00 0.00 71 1029.2
20260508230027 49 29 3.0 8.0 0.00 0.00 0.00 71 1029.2
20260508224528 49 349 3.0 6.0 0.00 0.00 0.00 71 1029.1